Location: Krasnoyarskiy Pitomnik
(51.1333°N, 71.6167°E)
Time: 09:03:33
(UTC+00:00)

CZ-4C R/B - Pass Details

Date: 22 October 2021
Orbit: 596 x 1405 km, 63.4° (Epoch: 06 December)

Event Time Altitude Azimuth Distance (km) Brightness Sun altitude
Exits shadow 23:45:45 16° 314° (NW) 2,507 4.3 -20.1°
Maximum altitude 23:51:39 81° 230° (SW) 1,238 2.9 -19.2°
Drops below altitude 10° 00:00:00 10° 144° (SE) 3,395 5.7 -17.9°
Sets 00:03:02 0° 143° (SE) 4,417 6.4 -17.5°
